Weather History for CWJR - September, 2013

Change the Weather History Date:

Tuesday, September 17, 2013

  Actual Average Record
Temperature  
Mean Temperature 61 °F -  
Max Temperature 70 °F - - ()
Min Temperature 52 °F - - ()
Degree Days  
Heating Degree Days 4    
Growing Degree Days 11 (Base 50)    
Moisture  
Dew Point 51 °F    
Average Humidity 73    
Maximum Humidity 93    
Minimum Humidity 38    
Precipitation  
Precipitation 0.00 in - - ()
Sea Level Pressure  
Sea Level Pressure 29.76 in    
Wind  
Wind Speed 3 mph ()    
Max Wind Speed 10 mph    
Max Gust Speed -    
T = Trace of Precipitation, MM = Missing Value Source: Averaged Metar Reports

Daily Weather History Graph

Daily Weather History Graph

Search for Another Location

Airport or City:

Trip Planner

Search our weather history database for the weather conditions in past years. The results will help you decide how hot, cold, wet, or windy it might be!

Date:

Astronomy

Sep. 17, 2013 Rise Set
Actual Time 6:25 AM MST 6:53 PM MST
Civil Twilight 5:53 AM MST 7:25 PM MST
Nautical Twilight 5:16 AM MST 8:03 PM MST
Astronomical Twilight 4:36 AM MST 8:42 PM MST
Moon 5:47 PM MST (9/17) 4:18 AM MST (9/17)
Length of Visible Light 13h 31m
Length of Day
12h 28m
Waxing Gibbous, 96% of the Moon is Illuminated
Sep 17
Waxing Gibbous
Sep 19
Full
Sep 26
Last Quarter
Oct 4
New
Oct 11
First Quarter

Hourly Weather History & Observations

Time (MST) Temp. Dew Point Humidity Pressure Visibility Wind Dir Wind Speed Gust Speed Precip Events Conditions
12:00 AM 56.3 °F 53.4 °F 90% 29.87 in - South 2.3 mph - N/A   Unknown
1:00 AM 55.4 °F 52.7 °F 91% 29.85 in - East 3.5 mph - N/A   Unknown
2:00 AM 54.9 °F 51.3 °F 88% 29.84 in - NE 3.5 mph - N/A   Unknown
3:00 AM 54.1 °F 51.4 °F 91% 29.85 in - NNE 2.3 mph - N/A   Unknown
4:00 AM 54.5 °F 51.3 °F 89% 29.86 in - ENE 2.3 mph - N/A   Unknown
5:00 AM 53 °F 51 °F 89% 29.85 in - WNW 3.5 mph - -  
5:00 AM 53.2 °F 50.7 °F 91% 29.85 in - WNW 3.5 mph - N/A   Unknown
6:00 AM 53.1 °F 50.9 °F 92% 29.85 in - East 3.5 mph - N/A   Unknown
7:00 AM 52.7 °F 50.7 °F 93% 29.85 in - East 2.3 mph - N/A   Unknown
8:00 AM 53.8 °F 51.6 °F 92% 29.85 in - East 1.2 mph - N/A   Unknown
9:00 AM 57.2 °F 50.9 °F 79% 29.84 in - South 1.2 mph - N/A   Unknown
10:00 AM 61.2 °F 53.6 °F 76% 29.82 in - West 2.3 mph - N/A   Unknown
11:00 AM 64 °F 53 °F 60% 29.81 in - West 2.3 mph - -  
11:00 AM 63.9 °F 53.4 °F 69% 29.81 in - West 2.3 mph - N/A   Unknown
12:00 PM 65.7 °F 53.2 °F 64% 29.77 in - WSW 3.5 mph - N/A   Unknown
1:00 PM 66.7 °F 52.3 °F 60% 29.75 in - WNW 4.6 mph - N/A   Unknown
2:00 PM 69.6 °F 52.0 °F 53% 29.71 in - West 3.5 mph - N/A   Unknown
3:00 PM 68.5 °F 52.2 °F 56% 29.69 in - WNW 10.4 mph - N/A   Unknown
4:00 PM 67.1 °F 51.3 °F 57% 29.67 in - NW 10.4 mph - N/A   Unknown
5:00 PM 66 °F 46 °F 38% 29.66 in - NW 8.1 mph - -  
5:00 PM 65.8 °F 46.2 °F 49% 29.66 in - NW 8.1 mph - N/A   Unknown
6:00 PM 64.8 °F 50.0 °F 59% 29.65 in - NW 9.2 mph - N/A   Unknown
7:00 PM 63.0 °F 52.9 °F 70% 29.64 in - NNW 6.9 mph - N/A   Unknown
8:00 PM 62.8 °F 52.3 °F 69% 29.66 in - North 3.5 mph - N/A   Unknown
9:00 PM 61.3 °F 49.8 °F 66% 29.67 in - WNW 3.5 mph - N/A   Unknown
10:00 PM 60.8 °F 49.3 °F 66% 29.69 in - NNE 2.3 mph - N/A   Unknown
11:00 PM 57 °F 51 °F 74% 29.70 in - NE 1.2 mph - -  
11:00 PM 57.4 °F 51.1 °F 79% 29.70 in - NE 1.2 mph - N/A   Unknown